Espaço - Ciências - Fenômenos Naturais
Meteógrafos Informações Meteorológicas em tempo real

Aeroporto de Congonhas

Histórico do Tempo
Temperatura atual: 18 graus 64 F    Umidade relativa: 82 %
Velocidade do vento: 05 nós 9 Km/h    Direção: 070 graus ENE
Ajuste do altímetro ..: 1018 HPA
Visibilidade: Ótima    Tempo presente: Céu Encoberto

Observação
Céu encoberto a1200 Pés.

Data Hora BRTTempo°CUmidadePressãoVentoVisib.
23/11 - 23:55   Parcialmente Nublado 18° 82% 1018 Leste/5 km/h 9999
23/11 - 22:55   Céu Encoberto 17° 88% 1018 Sudeste/9 km/h OK
23/11 - 21:55   Céu Encoberto 17° 88% 1018 Sul-sudeste/12 km/h OK
23/11 - 20:55   Céu Encoberto 17° 88% 1018 Sul-sudeste/12 km/h OK
23/11 - 19:55   Poucas nuvens esparsas 17° 88% 1017 Sul-sudeste/12 km/h OK
23/11 - 18:55   Céu Encoberto 18° 77% 1017 Sul-sudeste/18 km/h OK
23/11 - 17:55   Céu Encoberto 18° 77% 1017 Sul-sudeste/18 km/h OK
23/11 - 16:55   Poucas nuvens esparsas 18° 82% 1017 Sudeste/18 km/h OK
23/11 - 15:55   Céu Encoberto 18° 82% 1018 Sul-sudeste/23 km/h OK
23/11 - 14:55   Céu Encoberto 20° 73% 1018 Sul-sudeste/16 km/h OK
23/11 - 13:55   Céu Encoberto 20° 73% 1018 Sul-sudeste/16 km/h OK
23/11 - 12:55   Poucas nuvens esparsas 20° 73% 1018 Sul-sudeste/18 km/h OK
23/11 - 11:55   Céu Encoberto 19° 72% 1019 Este-sudeste/10 km/h OK
23/11 - 09:55   Parcialmente Nublado 18° 77% 1019 Este-sudeste/12 km/h OK
23/11 - 08:55   Céu Encoberto 17° 82% 1018 Este-sudeste/10 km/h OK
23/11 - 07:55   Céu Encoberto 16° 82% 1017 Sudeste/10 km/h OK
23/11 - 06:55   Céu Encoberto 15° 87% 1017 Sudeste/14 km/h OK
23/11 - 05:55   Céu Encoberto 15° 87% 1017 Sudeste/14 km/h OK
23/11 - 04:55   Poucas nuvens esparsas 15° 87% 1016 Sudeste/10 km/h OK
23/11 - 03:55   Poucas nuvens esparsas 15° 87% 1017 Sudeste/12 km/h OK
23/11 - 02:55   Parcialmente Nublado 15° 87% 1017 Sudeste/14 km/h OK
23/11 - 01:55   Poucas nuvens esparsas 15° 87% 1017 Sudeste/10 km/h OK
23/11 - 00:55   Parcialmente Nublado 15° 87% 1018 Sudeste/14 km/h 9999
22/11 - 23:55   Chovendo fraco 16° 87% 1018 Sul-sudeste/14 km/h 9000


Apolo11.com - Todos os direitos reservados - 2000 - 2017
Política de Privacidade   |     Termo de Uso e Licenciamento   |  -   Entre em Contato

"A avareza e a cobiça do poder não são paixões - são medo." - Carl Ehrensvard